Location: *
(49.8044°N, 4.0558°E)
Time: 08:01:55
(UTC+00:00)

MOS 1-B Rocket - Pass Details

Date: 09 April 2020
Orbit: 891 x 1605 km, 99.1° (Epoch: 24 May)

Event Time Altitude Azimuth Distance (km) Brightness Sun altitude
Rises 23:31:27 0° 16° (NNE) 3,684 8.0 -32.1°
Reaches altitude 10° 23:33:46 10° 17° (NNE) 2,797 7.1 -32.1°
Enters shadow 23:39:43 77° 67° (ENE) 1,146 4.2 -32.1°
